Weather Roundup
Issued by NWS Chicago, IL

Home | Current Version | Previous Version | Text Only | Print | Product List | Glossary Off
Versions: 1 2 3 4 5 6 7 8 9 10 11 12 13 14 15 16 17 18 19 20 21 22 23 24 25 26 27 28 29 30 31 32 33 34 35 36 37 38 39 40 41 42 43 44 45 46 47 48 49 50

000
NZUS59 KLOT 061758
HRRLOT

CHICAGO AREA WEATHER ROUNDUP
NATIONAL WEATHER SERVICE CHICAGO/ROMEOVILLE IL
100 PM CDT FRI MAY 06 2016

NOTE: "FAIR" INDICATES FEW OR NO CLOUDS BELOW 12,000 FEET WITH NO
SIGNIFICANT WEATHER AND/OR OBSTRUCTIONS TO VISIBILITY.

* THESE STATIONS ARE NOT UNDER NWS QUALITY CONTROL. THEY ALSO MAY NOT
  REPORT WEATHER SUCH AS PRECIPITATION OR FOG.

ILZ005-006-012>014-019>023-061900-
NORTHEAST ILLINOIS

CITY           SKY/WX    TMP DP  RH WIND       PRES   REMARKS
OHARE          MOSUNNY   74  42  31 SW10      29.90F
6HR MIN TEMP:  52; 6HR MAX TEMP:  74; 6HR PCP: TRACE;

MIDWAY         NOT AVBL
AURORA         NOT AVBL
WAUKEGAN       NOT AVBL
DUPAGE AIRPORT NOT AVBL
WHEELING       NOT AVBL
$$

WIZ051-052-058>065-066-070>072-061900-
SOUTHEAST WISCONSIN

CITY           SKY/WX    TMP DP  RH WIND       PRES   REMARKS
MILWAUKEE      NOT AVBL
$$

INZ001>003-010>013-019-020-061900-
NORTHWEST INDIANA

CITY           SKY/WX    TMP DP  RH WIND       PRES   REMARKS
GARY*          MOSUNNY  N/A N/A N/A W8        29.94F
MICHIGAN CITY* NOT AVBL
RENSSELAER*    NOT AVBL
$$

LMZ740>746-061900-
SOUTHERN LAKE MICHIGAN

STATION/POSITION TIME  SKY/WX   TEMP WIND        PRES    VSBY
                                AIR  DIR/SP/G
                 (UTC)          (F)  (DEG/KT/KT) (MB)    (MI)
HARRISON CRIB    1700            65  190/  9/ 10   N/A
BURNHAM HARBOR   1700            70  250/  7/ 12   N/A
CALUMET HARBOR   1700            69  190/  7/ 13 1013.8F
BURNS HARBOR     1700            63  330/  2/  4 1015.6F
MICHIGAN CITY    1700            60  230/  4/  4   N/A
$$

ABBREVIATIONS USED IN REMARKS
   TC - TEMPERATURE IN CELSIUS
  WCI - WIND CHILL INDEX
   HX - HEAT INDEX
  VSB - VISIBILITY
$$




USA.gov is the U.S. government's official web portal to all federal, state and local government web resources and services.